Spokane Felts, WA
on Friday, February 15, 2013

Friday
Previous Day Next Day
Daily Summary
 ActualAverageRecord
Temperature
Mean Temperature °F / °C 34°F / 1°C  
Max Temperature 52°F / 11°C 42°F / 6°C 52°F / 11°C (2013)
Min Temperature 25°F / -4°C 26°F / -3°C 15°F / -9°C (2006)
Degree Days
Heating Degree Days 26 31  
Month to date heating degree days 435 474  
Since 1 July heating degree days 3736 4186  
Cooling Degree Days 0 0  
Month to date cooling degree days 0 0  
Year to date cooling degree days 0 0  
Moisture
Dew Point 27°F / -3°C   
Average Humidity 71    
Maximum Humidity 92    
Minimum Humidity 50    
Precipitation
Precipitation 0.00 in / 0.00 cm 0.05 in / 1.27 cm 0.27 in / 0.69 cm (2014)
Month to date precipitation 0.08 0.85  
Year to date precipitation 1.71 2.80  
Wind
Wind Speed 1 mph / 1 km/h   
Max Wind Speed 7 mph / 11 km/h   
Max Gust Speed 8 mph / 13 km/h   
Visibility 7 miles / 11 kilometers   
Events Fog   

Key: T is trace of precipitation, MM is missing value
Source: NWS Daily Summary
Time(PST)TemperatureDew PointHumidity Pressure Visibility Wind DirectionWind SpeedGust SpeedPrecipitationEvents Conditions
12:53 AM 28.0°F / -2.2°C 24.1°F / -4.4°C 85% 30.57 in / 1035.0 hPa 8.0 miles / 12.9 kilometers Calm Calm - N/A   Clear
1:53 AM 28.0°F / -2.2°C 25.0°F / -3.9°C 88% 30.57 in / 1035.0 hPa 9.0 miles / 14.5 kilometers Calm Calm - N/A   Clear
2:53 AM 27.0°F / -2.8°C 24.1°F / -4.4°C 89% 30.57 in / 1035.2 hPa 5.0 miles / 8.0 kilometers Calm Calm - N/A   Clear
2:56 AM 26.6°F / -3.0°C 23.0°F / -5.0°C 86% 30.53 in / 1033.7 hPa 1.8 miles / 2.8 kilometers Calm Calm - N/A   Clear
3:25 AM 26.6°F / -3.0°C 23.0°F / -5.0°C 86% 30.53 in / 1033.7 hPa 2.0 miles / 3.2 kilometers Calm Calm - N/A   Scattered Clouds
3:27 AM 26.6°F / -3.0°C 23.0°F / -5.0°C 86% 30.53 in / 1033.7 hPa 4.0 miles / 6.4 kilometers Calm Calm - N/A   Mostly Cloudy
3:45 AM 26.6°F / -3.0°C 24.8°F / -4.0°C 93% 30.53 in / 1033.7 hPa 5.0 miles / 8.0 kilometers Calm Calm - N/A   Scattered Clouds
3:53 AM 27.0°F / -2.8°C 23.0°F / -5.0°C 85% 30.58 in / 1035.4 hPa 2.5 miles / 4.0 kilometers ENE 3.5 mph / 5.6 km/h - N/A   Scattered Clouds
4:09 AM 26.6°F / -3.0°C 24.8°F / -4.0°C 93% 30.53 in / 1033.7 hPa 6.0 miles / 9.7 kilometers NE 3.5 mph / 5.6 km/h - N/A   Clear
4:28 AM 26.6°F / -3.0°C 24.8°F / -4.0°C 93% 30.52 in / 1033.4 hPa 9.0 miles / 14.5 kilometers NE 3.5 mph / 5.6 km/h - N/A   Partly Cloudy
4:53 AM 26.1°F / -3.3°C 23.0°F / -5.0°C 88% 30.57 in / 1035.1 hPa 8.0 miles / 12.9 kilometers Calm Calm - N/A   Clear
5:53 AM 27.0°F / -2.8°C 23.0°F / -5.0°C 85% 30.58 in / 1035.5 hPa 6.0 miles / 9.7 kilometers Calm Calm - N/A   Clear
6:53 AM 27.0°F / -2.8°C 23.0°F / -5.0°C 85% 30.59 in / 1035.7 hPa 6.0 miles / 9.7 kilometers Calm Calm - N/A   Clear
7:05 AM 26.6°F / -3.0°C 23.0°F / -5.0°C 86% 30.53 in / 1033.7 hPa 4.0 miles / 6.4 kilometers Calm Calm - N/A   Scattered Clouds
7:17 AM 24.8°F / -4.0°C 21.2°F / -6.0°C 86% 30.53 in / 1033.7 hPa 5.0 miles / 8.0 kilometers SW 3.5 mph / 5.6 km/h - N/A   Mostly Cloudy
7:53 AM 28.0°F / -2.2°C 24.1°F / -4.4°C 85% 30.59 in / 1035.7 hPa 7.0 miles / 11.3 kilometers Calm Calm - N/A   Mostly Cloudy
8:00 AM 26.6°F / -3.0°C 23.0°F / -5.0°C 86% 30.52 in / 1033.4 hPa 7.0 miles / 11.3 kilometers Calm Calm - N/A   Mostly Cloudy
8:14 AM 28.4°F / -2.0°C 24.8°F / -4.0°C 86% 30.52 in / 1033.4 hPa 1.8 miles / 2.8 kilometers ESE 3.5 mph / 5.6 km/h - N/A   Overcast
8:27 AM 28.4°F / -2.0°C 24.8°F / -4.0°C 86% 30.52 in / 1033.4 hPa 0.8 miles / 1.2 kilometers East 3.5 mph / 5.6 km/h - N/A   Overcast
8:35 AM 28.4°F / -2.0°C 26.6°F / -3.0°C 93% 30.52 in / 1033.4 hPa 0.5 miles / 0.8 kilometers East 3.5 mph / 5.6 km/h - N/A Fog Light Freezing Fog
8:41 AM 28.4°F / -2.0°C 26.6°F / -3.0°C 93% 30.52 in / 1033.4 hPa 3.0 miles / 4.8 kilometers Calm Calm - N/A   Overcast
8:53 AM 30.0°F / -1.1°C 26.1°F / -3.3°C 85% 30.58 in / 1035.4 hPa 7.0 miles / 11.3 kilometers Calm Calm - N/A   Partly Cloudy
9:53 AM 34.0°F / 1.1°C 28.9°F / -1.7°C 82% 30.58 in / 1035.3 hPa 10.0 miles / 16.1 kilometers Calm Calm - N/A   Clear
10:53 AM 37.9°F / 3.3°C 30.0°F / -1.1°C 73% 30.56 in / 1034.7 hPa 10.0 miles / 16.1 kilometers Calm Calm - N/A   Clear
11:53 AM 43.0°F / 6.1°C 30.9°F / -0.6°C 62% 30.53 in / 1033.7 hPa 10.0 miles / 16.1 kilometers Calm Calm - N/A   Clear
12:53 PM 46.0°F / 7.8°C 32.0°F / 0.0°C 58% 30.50 in / 1032.6 hPa 10.0 miles / 16.1 kilometers Calm Calm - N/A   Clear
1:53 PM 48.9°F / 9.4°C 32.0°F / 0.0°C 52% 30.46 in / 1031.4 hPa 10.0 miles / 16.1 kilometers Calm Calm - N/A   Partly Cloudy
2:53 PM 52.0°F / 11.1°C 33.1°F / 0.6°C 49% 30.44 in / 1030.8 hPa 10.0 miles / 16.1 kilometers NNE 3.5 mph / 5.6 km/h - N/A   Partly Cloudy
3:53 PM 50.0°F / 10.0°C 33.1°F / 0.6°C 52% 30.43 in / 1030.2 hPa 10.0 miles / 16.1 kilometers Variable 3.5 mph / 5.6 km/h - N/A   Clear
4:53 PM 48.0°F / 8.9°C 33.1°F / 0.6°C 56% 30.40 in / 1029.3 hPa 10.0 miles / 16.1 kilometers Calm Calm - N/A   Clear
5:53 PM 39.9°F / 4.4°C 32.0°F / 0.0°C 73% 30.39 in / 1028.9 hPa 10.0 miles / 16.1 kilometers NNE 4.6 mph / 7.4 km/h - N/A   Clear
6:53 PM 37.0°F / 2.8°C 30.9°F / -0.6°C 79% 30.38 in / 1028.8 hPa 10.0 miles / 16.1 kilometers Calm Calm - N/A   Clear
7:53 PM 34.0°F / 1.1°C 28.9°F / -1.7°C 82% 30.37 in / 1028.3 hPa 10.0 miles / 16.1 kilometers ENE 3.5 mph / 5.6 km/h - N/A   Clear
8:53 PM 37.0°F / 2.8°C 30.0°F / -1.1°C 76% 30.34 in / 1027.4 hPa 10.0 miles / 16.1 kilometers NE 3.5 mph / 5.6 km/h - N/A   Clear
9:53 PM 33.1°F / 0.6°C 28.9°F / -1.7°C 85% 30.32 in / 1026.8 hPa 10.0 miles / 16.1 kilometers Calm Calm - N/A   Clear
10:53 PM 32.0°F / 0.0°C 28.0°F / -2.2°C 85% 30.32 in / 1026.7 hPa 10.0 miles / 16.1 kilometers Calm Calm - N/A   Clear
11:53 PM 30.0°F / -1.1°C 27.0°F / -2.8°C 88% 30.30 in / 1025.9 hPa 10.0 miles / 16.1 kilometers Calm Calm - N/A   Clear
Moon Phase
Feb. 15 Feb. 17 Feb. 25 Mar. 04 Mar. 11
Sunrise:06:54 AM (PST) Moon Rise:09:04 AM (PST)2/15
Sunset:05:13 PM (PST) Moon Set:11:49 PM (PST)2/15

Copyright © 2014 The Weather Underground, Inc.